User: anonymous   Login
Location: Unspecified
(0.0000°N, 0.0000°E)
Time: 15:04:15
(UTC+00:00)
Language:

OPTUS 1C - Orbit

View from above orbital plane
View from above orbital plane
View from above satellite
View from above satellite

Ground track
Ground track

The orbit data is extracted from the following two-line orbital elements,

1 27831U 03028B   17327.14285674 -.00000141  00000-0  00000+0 0  9997
2 27831   0.0521 132.8728 0003797  92.1838  44.7122  1.00271885 52952
Epoch (UTC): 23 November 2017 03:25:42
Eccentricity: 0.0003797
inclination: 0.0521°
perigee height: 35770 km
apogee height: 35802 km
right ascension of ascending node: 132.8728°
argument of perigee: 92.1838°
revolutions per day: 1.00271885
mean anomaly at epoch: 44.7122°
orbit number at epoch: 5295

The dashed part of the orbit path shows where the satellite is in the earth's shadow,  

DLR